Location: Eschertshofen
(49.3064°N, 11.5756°E)
Time: 12:12:40
(UTC+00:00)

In-Cosmos 22 - Pass Details

Date: 18 September 2020
Orbit: 785 x 877 km, 81.2° (Epoch: 21 October)

Event Time Altitude Azimuth Distance (km) Brightness Sun altitude
Rises 19:08:13 0° 345° (NNW) 3,289 7.9 -18.0°
Reaches altitude 10° 19:10:37 10° 342° (NNW) 2,356 7.1 -18.3°
Maximum altitude 19:15:50 63° 263° (W) 881 4.5 -19.1°
Drops below altitude 10° 19:21:05 10° 183° (S) 2,364 6.3 -19.8°
Enters shadow 19:21:27 - 182° (S) 2,510 6.4 -19.9°
